Flagstaff, AZ

10:00 AM MST on January 18, 2018 (GMT -0700)
Flagstaff Pulliam

Weather History for KFLG - June, 2015

Change the Weather History Date:

Saturday, June 13, 2015

  Actual Average Record
Temperature  
Mean Temperature 61 °F 59 °F  
Max Temperature 75 °F 77 °F 92 °F (1974)
Min Temperature 47 °F 41 °F 30 °F (1958)
Degree Days  
Heating Degree Days 4 6  
Month to date heating degree days 99 103  
Since 1 July heating degree days 6033 6876  
Cooling Degree Days 0 0  
Month to date cooling degree days 0 0  
Year to date cooling degree days 0 0  
Growing Degree Days 10 (Base 50)    
Moisture  
Dew Point 47 °F    
Average Humidity 63    
Maximum Humidity 93    
Minimum Humidity 33    
Precipitation  
Precipitation 0.02 in 0.01 in 1.58 in (1955)
Month to date precipitation 1.14 0.14  
Year to date precipitation 12.07 8.25  
Snow  
Snow 0.00 in 0.00 in 0.00 in (2002)
Month to date snowfall 0.0 0.1  
Since 1 July snowfall 62.9 101.8  
Snow Depth 0.00 in    
Sea Level Pressure  
Sea Level Pressure 29.88 in    
Wind  
Wind Speed 3 mph (SSW)    
Max Wind Speed 16 mph    
Max Gust Speed 23 mph    
Visibility 10 miles    
Events Rain , Thunderstorm    
T = Trace of Precipitation, MM = Missing Value Source: NWS Daily Summary

Daily Weather History Graph

Daily Weather History Graph

Search for Another Location

Airport or City:

Trip Planner

Search our weather history database for the weather conditions in past years. The results will help you decide how hot, cold, wet, or windy it might be!

Date:

Astronomy

Jun. 13, 2015 Rise Set
Actual Time 5:11 AM MST 7:41 PM MST
Civil Twilight 4:42 AM MST 8:11 PM MST
Nautical Twilight 4:05 AM MST 8:48 PM MST
Astronomical Twilight 3:24 AM MST 9:28 PM MST
Moon 3:05 AM MST (6/13) 4:51 PM MST (6/13)
Length of Visible Light 15h 29m
Length of Day
14h 30m
Waning Crescent, 9% of the Moon is Illuminated
Jun 13
Waning Crescent
Jun 16
New
Jun 24
First Quarter
Jul 1
Full
Jul 8
Last Quarter

Hourly Weather History & Observations

Time (MST) Temp. Dew Point Humidity Pressure Visibility Wind Dir Wind Speed Gust Speed Precip Events Conditions
12:57 AM 55.9 °F 46.9 °F 72% 29.82 in 10.0 mi Calm Calm - N/A   Overcast
1:57 AM 53.1 °F 48.0 °F 83% 29.82 in 10.0 mi Calm Calm - N/A   Mostly Cloudy
2:57 AM 51.1 °F 48.0 °F 89% 29.81 in 10.0 mi Calm Calm - N/A   Clear
3:57 AM 50.0 °F 48.0 °F 93% 29.82 in 10.0 mi Calm Calm - N/A   Scattered Clouds
4:57 AM 48.0 °F 46.0 °F 93% 29.83 in 10.0 mi Calm Calm - N/A   Partly Cloudy
5:57 AM 51.1 °F 48.0 °F 89% 29.84 in 10.0 mi ENE 3.5 mph - N/A   Mostly Cloudy
6:57 AM 57.0 °F 48.9 °F 74% 29.83 in 10.0 mi Calm Calm - N/A   Overcast
7:57 AM 62.1 °F 48.0 °F 60% 29.83 in 10.0 mi Calm Calm - N/A   Mostly Cloudy
8:57 AM 68.0 °F 44.1 °F 42% 29.83 in 10.0 mi Calm Calm - N/A   Mostly Cloudy
9:57 AM 71.1 °F 45.0 °F 39% 29.82 in 10.0 mi Variable 3.5 mph - N/A   Scattered Clouds
10:55 AM 71.6 °F 46.4 °F 41% 30.11 in 10.0 mi SSW 13.8 mph - N/A Thunderstorm Thunderstorm
10:57 AM 71.1 °F 46.0 °F 41% 29.82 in 10.0 mi SSW 12.7 mph - N/A Thunderstorm Thunderstorm
11:05 AM 71.1 °F 46.0 °F 41% 30.11 in 10.0 mi South 9.2 mph - N/A Thunderstorm Thunderstorm
11:57 AM 73.0 °F 43.0 °F 34% 29.81 in 10.0 mi Variable 5.8 mph - N/A Thunderstorm Thunderstorm
12:57 PM 64.9 °F 52.0 °F 63% 29.82 in 10.0 mi East 3.5 mph - 0.01 in Thunderstorm Thunderstorm
1:57 PM 64.9 °F 48.9 °F 56% 29.82 in 10.0 mi SSW 11.5 mph - N/A Thunderstorm Thunderstorm
2:57 PM 62.6 °F 46.4 °F 55% 30.10 in 10.0 mi NNW 8.1 mph - N/A Rain , Thunderstorm Light Thunderstorms and Rain
3:40 PM 61.0 °F 48.0 °F 62% 30.09 in 10.0 mi SW 11.5 mph - 0.00 in Thunderstorm Overcast
3:57 PM 60.1 °F 50.0 °F 69% 29.86 in 10.0 mi WSW 9.2 mph - 0.01 in Thunderstorm Overcast
4:35 PM 64.0 °F 48.0 °F 56% 30.10 in 10.0 mi WSW 12.7 mph - N/A   Scattered Clouds
4:57 PM 64.0 °F 48.0 °F 56% 29.86 in 10.0 mi WSW 9.2 mph - N/A   Mostly Cloudy
5:57 PM 61.0 °F 48.9 °F 64% 29.85 in 10.0 mi SSW 6.9 mph - N/A   Overcast
6:57 PM 62.1 °F 48.9 °F 62% 29.85 in 10.0 mi East 4.6 mph - N/A   Partly Cloudy
7:57 PM 57.9 °F 48.0 °F 70% 29.85 in 10.0 mi Calm Calm - N/A   Clear
8:57 PM 53.1 °F 46.9 °F 80% 29.83 in 10.0 mi Calm Calm - N/A   Clear
9:57 PM 50.0 °F 46.0 °F 86% 29.84 in 10.0 mi Calm Calm - N/A   Clear
10:57 PM 48.9 °F 45.0 °F 86% 29.85 in 10.0 mi Calm Calm - N/A   Clear
11:57 PM 46.9 °F 45.0 °F 93% 29.84 in 10.0 mi Calm Calm - N/A   Clear